Location: Unspecified
(0.0000°N, 0.0000°E)
Time: 12:46:35
(UTC+00:00)

XW-2C - Pass Details

Date: 08 December 2017
Orbit: 509 x 531 km, 97.5° (Epoch: 19 June)

Event Time Altitude Azimuth Distance (km) Brightness Sun altitude
Rises 18:34:23 0° 202° (SSW) 2,614 ? -9.7°
Reaches altitude 10° 18:37:27 10° 230° (SW) 1,726 ? -10.4°
Maximum altitude 18:39:12 13° 258° (WSW) 1,542 ? -10.8°
Drops below altitude 10° 18:40:58 10° 287° (WNW) 1,724 ? -11.2°
Sets 18:44:02 0° 316° (NW) 2,609 ? -11.9°
